Location: Bergheim
(47.7112°N, 9.4103°E)
Time: 09:27:08
(UTC+00:00)

Daily predictions for brighter satellites

Satellite Brightness Start Highest point End
(mag) Time Altitude Azimuth Time Altitude Azimuth Time Altitude Azimuth
Spot 1 4.5 16:00:42 10° NNE 16:05:19 57° ESE 16:10:10 10° S
Cosmos 1464 Rocket 4.1 16:03:26 10° S 16:09:47 77° E 16:16:11 10° NNE
Cosmos 1340 Rocket 3.0 16:06:08 10° N 16:10:08 52° ENE 16:14:08 10° SSE
SJ 16-02 2.8 16:06:25 10° NNW 16:10:35 43° WSW 16:14:43 10° S
CZ-4C R/B 3.5 16:07:01 10° N 16:10:56 72° WNW 16:14:36 10° SSW
ISS -3.2 16:10:21 10° WNW 16:13:39 45° N 16:16:55 10° E
Cosmos 1606 2.8 16:12:44 10° SSW 16:16:30 77° W 16:20:18 10° N
CZ-2D R/B 4.3 16:14:00 10° ESE 16:17:07 24° ENE 16:20:14 10° NNE
Lacrosse 5 rocket 2.7 16:14:46 10° NW 16:17:50 22° N 16:20:54 10° ENE
Nadezhda 4 Rocket 4.0 16:11:34 10° N 16:17:55 74° E 16:24:14 10° SSE
CZ-4B R/B 4.0 16:15:48 10° ESE 16:20:13 27° ENE 16:24:37 10° N
Cosmos 2360 4.4 16:15:01 10° NNW 16:20:38 52° NE 16:26:12 10° SE
ADEOS 4.5 16:15:34 10° S 16:20:40 55° W 16:25:50 10° NNW
Meteor 1-20 Rocket 4.4 16:16:25 10° N 16:22:10 58° ENE 16:27:56 10° SSE
CZ-2C R/B 3.9 16:19:28 10° NE 16:23:05 19° E 16:26:40 10° SE
Cosmos 1500 Rocket 3.6 16:18:56 10° N 16:23:21 61° ENE 16:27:42 10° SSE
Cosmos 540 Rocket 4.3 16:19:12 10° SSE 16:23:38 31° E 16:28:05 10° NE
CZ-4C R/B 3.3 16:17:19 10° NW 16:23:42 40° NE 16:31:13 10° ESE
CZ-4B R/B 3.0 16:23:06 10° SSE 16:27:12 80° WSW 16:31:05 10° NNW
Cosmos 1500 4.1 16:25:41 10° NNE 16:28:51 25° ENE 16:31:58 10° SE
SMAP 3.0 16:24:18 10° SSE 16:28:53 64° ENE 16:33:31 10° N
USA 305 3.8 16:25:37 10° WNW 16:29:34 36° N 16:32:56 13° ENE
CZ-2C R/B 3.2 16:26:08 10° S 16:31:02 73° WSW 16:35:49 10° NNW
Cosmos 1092 Rocket 4.1 16:26:22 10° N 16:32:40 58° ENE 16:38:52 10° SSE
Cosmos 468 Rocket 4.0 16:28:10 10° S 16:33:14 61° ESE 16:38:22 10° NNE
Cosmos 1898 Rocket 3.4 16:29:07 10° NNW 16:34:24 71° ENE 16:39:35 10° SSE
Cosmos 44 4.5 16:30:20 10° NW 16:34:53 45° WSW 16:39:10 10° S
Cosmos 1805 Rocket 3.7 16:30:42 10° N 16:34:54 47° ENE 16:39:05 10° SSE
Sich 1 3.5 16:31:32 10° N 16:35:33 38° ENE 16:39:34 10° SE
Cosmos 1933 3.6 16:32:41 10° SSE 16:36:33 46° E 16:40:26 10° NNE
Cosmos 1842 Rocket 4.0 16:34:49 10° SSW 16:39:14 67° W 16:43:44 10° N
Cosmos 2360 Rocket 4.1 16:37:49 10° NNE 16:39:19 11° NNE 16:40:27 10° NE
Cosmos 2221 3.2 16:35:10 10° SSW 16:39:21 56° WNW 16:43:37 10° N
PSLV R/B 3.8 16:38:40 10° SSE 16:42:13 49° ENE 16:45:51 10° N
SL-08 R/B 4.2 16:40:33 10° N 16:45:07 50° WNW 16:49:37 10° SW
Cosmos 2084 4.0 16:46:54 10° NW 16:51:09 62° SW 16:55:34 10° SSE
deb Chang Zheng 4 4.1 16:48:04 10° SE 16:52:00 36° ENE 16:55:58 10° N
AQUARIUS 4.2 16:48:01 10° SSE 16:52:30 89° WSW 16:57:02 10° NNW
Cosmos 1627 Rocket 4.4 16:47:12 10° N 16:53:23 70° ENE 16:59:29 10° SSE
H-2A R/B 2.0 16:49:48 10° SSE 16:54:53 59° ENE 16:59:51 10° N
Cosmos 2034 Rocket 4.3 16:49:57 10° SSW 16:56:04 71° W 17:02:15 10° N
NOSS 2-2 (C) 4.3 16:52:40 10° NW 16:57:39 65° NE 17:04:38 10° SE
ERBS 4.0 16:55:47 10° WNW 16:58:19 21° NNW 16:59:46 16° NNE
Cosmos 1666 3.4 16:55:15 10° N 16:58:34 29° ENE 17:01:51 10° SE
Cosmos 2322 Rocket 3.6 16:55:24 10° N 16:59:19 18° NE 17:00:05 18° NE
USA 306 3.8 16:57:53 10° WNW 17:01:48 34° N 17:03:44 23° NE
Cosmos 2279 Rocket 4.3 16:56:26 10° SSE 17:02:13 42° E 17:07:59 10° NNE
Cosmos 1697 Rocket 2.9 16:57:19 10° NNW 17:02:57 77° WSW 17:08:33 10° SSE
USA 267 3.4 16:58:13 16° NE 17:03:33 72° NNW 17:10:02 10° WSW
Cosmos 2369 3.6 17:00:35 10° NNW 17:06:21 79° ENE 17:12:04 10° SSE
Cosmos 1980 Rocket 2.1 17:01:11 10° NNW 17:06:51 65° ENE 17:12:27 10° SE
COSMO-SKYMED 1 3.0 17:05:08 20° NE 17:07:46 39° E 17:11:51 10° SSE
MOS 1-B Rocket 4.1 17:02:13 10° NNE 17:08:00 60° ESE 17:14:33 10° S
Cosmos 1763 Rocket 3.7 17:03:04 10° SSW 17:08:06 68° WNW 17:13:13 10° NNE
Cosmos 1939 Rocket 4.1 17:04:46 10° S 17:08:43 45° W 17:12:40 10° NNW
Meteor 1-5 Rocket 4.5 17:03:09 10° N 17:08:58 50° ENE 17:14:43 10° SSE
SL-24 R/B - RUBIN 2 3.4 17:07:13 10° NW 17:11:49 71° NE 17:15:48 12° SE
Meteor 2-21 4.4 17:06:22 10° N 17:12:31 85° E 17:18:34 10° S
Cosmos 841 Rocket 3.4 17:08:26 10° S 17:13:32 64° ESE 17:17:15 19° NNE
Cosmos 1812 2.9 17:11:33 10° SSE 17:15:14 46° E 17:16:32 32° NE
Cosmos 1937 Rocket 3.8 17:10:36 10° NNW 17:15:56 74° WSW 17:21:13 10° SSE
SL-16 R/B 3.1 17:11:53 10° N 17:16:42 27° NE 17:17:26 27° ENE
Cosmos 1125 Rocket 4.4 17:12:42 10° N 17:17:07 27° NE 17:17:07 27° NE
Cosmos 1634 Rocket 4.0 17:11:22 10° S 17:17:41 84° E 17:24:03 10° N
Cosmos 1633 Rocket 3.2 17:14:36 10° N 17:18:52 49° ENE 17:23:06 10° SSE
USA 307 3.8 17:16:14 10° WNW 17:20:11 35° N 17:21:20 29° NE
YAOGAN 1 4.0 17:22:20 21° NNE 17:22:20 21° NNE 17:24:10 10° N
Cosmos 2082 Rocket 2.2 17:15:32 10° S 17:21:06 60° ESE 17:24:27 24° NE
Cosmos 2026 Rocket 4.1 17:18:12 10° NNW 17:24:20 74° W 17:30:23 10° S
Cosmos 2333 Rocket 4.2 17:22:21 10° N 17:24:11 13° NNE 17:24:11 13° NNE
Okean O Rocket 1.5 17:25:18 10° SSE 17:29:43 72° ENE 17:34:12 10° N
ATLAS 2AS CENTAUR R/B 4.3 17:24:04 10° NW 17:29:58 23° N 17:33:27 17° NNE
Cosmos 372 Rocket 4.0 17:25:01 10° NNW 17:30:16 85° WSW 17:35:31 10° SSE
Cosmos 2278 3.6 17:25:06 10° NNW 17:30:50 71° ENE 17:36:30 10° SE
SKYMED 3 4.4 17:29:31 25° NNE 17:31:58 70° ESE 17:36:17 10° S
ATLAS CENTAUR R/B 4.0 17:32:39 10° NW 17:34:24 12° NNW 17:36:13 10° N
Cosmos 1151 Rocket 2.9 17:31:49 10° S 17:36:07 74° E 17:38:07 31° NNE
Cosmos 1782 3.4 17:32:16 10° SSW 17:36:13 58° WNW 17:39:44 13° N
Cosmos 1655 Rocket 4.1 17:30:39 10° N 17:36:53 50° ENE 17:43:02 10° SSE
USA 234 4.2 17:31:40 10° SSE 17:37:55 47° SW 17:44:11 10° WNW
COSMOS 2406 3.5 17:33:08 10° SW 17:38:50 67° WNW 17:43:04 19° NNE
COSMOS 2455 2.8 17:34:38 10° SSW 17:40:40 88° ESE 17:43:55 29° NE
Meteor 2-15 4.5 17:36:12 10° SSE 17:42:06 52° E 17:45:42 23° NNE
USA 308 3.7 17:38:48 10° WNW 17:42:45 36° N 17:42:51 35° N
ARGOS 3.1 17:38:00 10° SSE 17:43:26 88° WSW 17:48:53 10° NNW
Cosmos 1666 Rocket 3.6 17:39:19 10° NNW 17:43:47 77° W 17:48:11 10° S
Cosmos 1833 Rocket 3.5 17:40:04 10° SW 17:45:29 48° NW 17:49:48 16° NNE
Cosmos 2180 Rocket 4.4 17:42:13 10° S 17:48:31 72° E 17:54:48 10° NNE
Meteor 2-6 Rocket 4.1 17:44:33 10° S 17:50:17 70° E 17:53:25 27° NNE
Cosmos 1328 Rocket 3.4 17:46:02 10° S 17:50:27 75° E 17:50:52 68° NE
ISS -3.2 17:47:14 10° WNW 17:50:10 58° WSW 17:50:10 58° WSW
Cosmos 2219 Rocket 4.3 17:51:15 10° N 17:52:22 13° NNE 17:52:22 13° NNE
CZ-4 R/B 4.0 17:59:49 10° N 17:59:49 10° N 17:59:53 10° N
SKYMED 2 3.8 17:53:45 28° N 17:55:55 68° WNW 18:00:13 10° SSW
Lacrosse 5 rocket 2.2 17:53:44 10° NW 17:56:30 38° NNW 17:56:30 38° NNW
NOAA 15 4.4 17:54:49 10° SSE 18:00:05 74° ENE 18:05:23 10° N
Landsat 5 3.4 18:00:26 81° WSW 18:00:26 81° WSW 18:04:19 10° SSW
CZ-4B R/B 3.9 17:55:13 10° S 18:00:30 52° W 18:05:45 10° NNW
Cosmos 2298 Rocket 4.0 17:55:24 10° NNW 18:00:27 61° NE 18:00:27 61° NE
Cosmos 1570 Rocket 3.9 17:55:42 10° SSW 18:00:57 85° ESE 18:02:05 56° NNE
Meteor 2-8 Rocket 4.3 17:55:32 10° S 18:01:40 85° E 18:07:53 10° N
ATLAS CENTAUR R/B 2.7 17:54:48 10° WSW 18:02:36 52° NW 18:03:22 46° N
SL-08 RB Rocket 3.8 17:58:39 10° S 18:03:17 79° WSW 18:07:56 10° NNW
GEOS 3 Rocket 3.5 18:02:08 56° SE 18:03:18 83° NE 18:08:32 10° NW
CZ-2C R/B 2.9 17:59:22 14° N 18:03:53 65° WNW 18:08:59 10° SSW
Meteor 1-11 Rocket 3.6 18:02:42 10° N 18:07:51 64° NE 18:07:51 64° NE
Meteor 1-10 Rocket 4.1 18:02:35 10° S 18:08:21 72° E 18:09:02 64° NE
Cosmos 1818 3.4 18:03:10 10° NW 18:08:42 80° NE 18:09:02 76° E
Cosmos 1814 Rocket 4.1 18:03:29 10° SSW 18:08:43 74° WNW 18:10:08 48° N
USA 305 4.1 18:06:03 10° WNW 18:08:56 33° NNW 18:08:56 33° NNW
Cosmos 44 Rocket 3.4 18:07:30 10° NW 18:11:47 65° NNW 18:11:47 65° NNW
CZ-4C R/B 3.1 18:05:39 10° NW 18:12:53 75° SW 18:20:10 15° SSE
Cosmos 2360 Rocket 3.7 18:19:45 10° NNW 18:22:13 24° N 18:22:13 24° N
Cosmos 2208 Rocket 4.3 18:28:23 10° SSW 18:33:45 66° WNW 18:33:46 66° WNW
Cosmos 2322 Rocket 3.3 18:38:37 10° NNW 18:41:55 36° NNW 18:41:55 36° NNW
USA 267 3.9 18:45:34 41° N 18:46:03 42° N 18:52:06 10° WNW
Cosmos 1980 Rocket 4.4 18:46:05 10° NW 18:50:21 22° W 18:54:35 10° SSW
SL-16 R/B 3.3 18:55:38 10° NNW 18:59:21 40° NW 18:59:21 40° NW
Cosmos 2082 Rocket 3.8 19:00:43 10° WSW 19:05:34 28° NW 19:06:20 27° NW
Cosmos 2333 Rocket 4.5 19:05:12 10° NNW 19:06:11 15° NNW 19:06:11 15° NNW
ATLAS 2AS CENTAUR R/B 4.3 19:16:53 10° NW 19:20:53 25° N 19:20:53 25° N
